Regional Weather Roundup
Issued by NWS Charleston, SC

Home | Current Version | Previous Version | Text Only | Print | Product List | Glossary On
Versions: 1 2 3 4 5 6 7 8 9 10 11 12 13 14 15 16 17 18 19 20 21 22 23 24 25 26 27 28 29 30 31 32 33 34 35 36 37 38 39 40 41 42 43 44 45 46 47 48 49 50
000
ASUS42 KCHS 302127
RWRCHS

REGIONAL WEATHER ROUNDUP
NATIONAL WEATHER SERVICE CHARLESTON SC
500 PM EDT SAT MAY 30 2015

NOTE: "FAIR" INDICATES FEW OR NO CLOUDS BELOW 12,000 FEET WITH NO
SIGNIFICANT WEATHER AND/OR OBSTRUCTIONS TO VISIBILITY.

NOT ALL STATIONS ARE QUALITY CONTROLLED BY THE NATIONAL
WEATHER SERVICE. USE DATA WITH CAUTION...ESPECIALLY
DEWPOINT OBSERVATIONS.

SCZ027-030-031-034>040-042>050-302200-
...SOUTHEAST SOUTH CAROLINA...

CITY           SKY/WX    TMP DP  RH WIND       PRES   REMARKS
N CHARLESTON   MOSUNNY   83  65  54 SE17      30.12F
WATERFRONT PAR   N/A     80  70  71 E14       30.10F
MOUNT PLEASANT FAIR      81  68  65 SE6       30.13S
JOHNS ISLAND   CLEAR     81  68  65 E13G20    30.13S
PINOPOLIS        N/A     84  66  54 SE6       30.05S
MONCKS CORNER  MOCLDY    84  66  54 SE6       30.11F
SUMMERVILLE    MOCLDY    84  66  54 SE7       30.12F
BEAUFORT MCAS  MOSUNNY   82  69  64 E13       30.11F
BEAUFORT ARPT  MOCLDY    81  70  69 E13       30.11S
HILTON HEAD IS MOSUNNY   81  72  74 NE12      30.13F
WALTERBORO     PTCLDY    79  70  73 SW6       30.12F
ALLENDALE      MOCLDY    79  68  69 SE8       30.10F

...SOUTHERN MIDLANDS AND PEE DEE...

CITY           SKY/WX    TMP DP  RH WIND       PRES   REMARKS
GEORGETOWN     NOT AVBL
KINGSTREE      NOT AVBL
ORANGEBURG     PTSUNNY   86  63  45 SE9       30.10F
BARNWELL       MOCLDY    84  70  61 SE14      30.10F
AIKEN          MOCLDY    86  52  30 E6        30.12F
MANNING        FAIR      82  32  16 S6        30.11F
COLUMBIA       MOSUNNY   89  60  37 SE9       30.09F
SUMTER         SUNNY     89  63  41 S7        30.09F
FLORENCE       SUNNY     89  62  40 SE14      30.11F
MYRTLE BEACH   MOSUNNY   81  64  57 SE8       30.17F
N MYRTLE BEACH SUNNY     80  66  62 SE12      30.15F

$$

GAZ063-065-086>088-099>101-113>116-118-119-134>141-150-302200-
...SOUTHEAST GEORGIA...

CITY           SKY/WX    TMP DP  RH WIND       PRES   REMARKS
SAVANNAH ARPT  PTSUNNY   79  68  69 E14       30.10F
HUNTER AAF     MOSUNNY   82  70  67 E14       30.08F
FORT STEWART   CLOUDY    81  69  67 E7        30.08F
STATESBORO     MOSUNNY   85  72  65 SE8       30.10S HX  90
SYLVANIA       CLOUDY    85  71  63 SE7       30.11S HX  90
CLAXTON        MOCLDY    75  72  88 E5        30.10F

...CSRA...CENTRAL AND FAR SOUTHEAST GEORGIA...

CITY           SKY/WX    TMP DP  RH WIND       PRES   REMARKS
THOMSON        SUNNY     89  65  44 CALM      30.13F HX  91
AUGUSTA-BUSH   MOSUNNY   88  63  43 SE9       30.07F
AUGUSTA-DANIEL SUNNY     89  61  38 VRB3      30.09F
SWAINSBORO     MOCLDY    86  72  62 S8        30.09F HX  92
VIDALIA        CLOUDY    82  68  61 SE7       30.09F
EASTMAN        FAIR      90  65  42 SE5       30.08F HX  92
HAZLEHURST     FAIR      85  69  59 E12       30.07F
ALMA           CLOUDY    84  66  54 E9        30.07F
WAYCROSS       LGT RAIN  78  73  86 SE6       30.07S
JESUP          RAIN      81  72  74 S8G17     30.10R
BAXLEY         FAIR      86  70  58 E7        30.08S HX  90
BRUNSWICK      MOSUNNY   82  68  61 SE8       30.10S
SAINT SIMONS   NOT AVBL

$$

SCZ027-028-034-036>038-045-046-048>050-GAZ119-141-302200-
...LAKE AND SUPPLEMENTAL COASTAL OBSERVATIONS...

STATION/POSITION TIME  TEMP    WIND        PRES    WAVE   SWELL
                       AIR SEA DIR/SP/G            HT/PER HT/PER/DIR
                 (UTC) (F)     (DEG/KT/KT) (MB)    (FT/S) (FT/S/D)
UPR LAKE MARION  NOT AVBL
WINYAH BAY       2000   78     120/  8     1020.0
LAKE MURRAY      2000   84     220/  4/  5 1019.0F
ACE BASIN NERRS  2000   83     120/  5     1020.0F
FORT PULASKI     2100   77 80   80/ 15/ 17 1020.1F
SAPELO ISLAND    2100   81      70/  7     1019.0S

$$

ANZ835-935-AMZ111-154-330-350-352-354-370-450-454-472-302200-
...C-MAN AND BUOY OBSERVATIONS...

STATION/POSITION TIME  TEMP    WIND        PRES    WAVE   SWELL
                       AIR SEA DIR/SP/G            HT/PER HT/PER/DIR
                 (UTC) (F)     (DEG/KT/KT) (MB)    (FT/S) (FT/S/D)
BUOY 41004       2050   77 80   80/ 12/ 14 1019.8F   4/ 9   3/ 9
BUOY 41008       2050   76 79   90/ 10/ 12 1019.4F   3/ 8   3/ 90/ 8
FOLLY BEACH CMAN 2100   77      90/ 13/ 15 1020.5F
CAPERS NEARSHORE 2008   78     100/ 12/ 16 1020.8F
FRIPP NEARSHORE  2000   79     110/ 14/ 16 1019.9


STATION/POSITION TIME  TEMP    WIND        PRES    WAVE   SWELL
                       AIR SEA DIR/SP/G            HT/PER HT/PER/DIR
                 (UTC) (F)     (DEG/KT/KT) (MB)    (FT/S) (FT/S/D)
5E ST. MARYS GA  2021      81                N/A     4/ 9
FRYING PAN BUOY  2050   78 77   90/  8/ 10 1021.5F   4/ 9   3/110/ 9
BUOY 41025       2050   78 81   90/  6/ 10 1021.6F   4/10   3/100/10
CAPE LOOKOUT NC  2100   77     100/ 10/ 11 1021.1F
BUOY 41002       2050   75 75   70/ 16/ 17 1019.7F   6/10   5/ 80/10
BUOY 41010       2020   78 79   70/ 14/ 16 1018.5F
ST AUGUSTINE FL  2100   78 82   90/ 11/ 12 1019.1F


$$



USA.gov is the U.S. government's official web portal to all federal, state and local government web resources and services.